Glasgow, United Kingdom

6:59 AM BST on June 22, 2018 (GMT +0100)
Glasgow

Weather History for EGPF - September, 2017

Change the Weather History Date:

Wednesday, September 13, 2017

  Actual Average Record
Temperature  
Mean Temperature 52 °F -  
Max Temperature 57 °F 57 °F 71 °F (2006)
Min Temperature 44 °F 44 °F 33 °F (1996)
Degree Days  
Heating Degree Days 14    
Growing Degree Days 2 (Base 50)    
Moisture  
Dew Point 47 °F    
Average Humidity 86    
Maximum Humidity 100    
Minimum Humidity 67    
Precipitation  
Precipitation 0.00 in - - ()
Sea Level Pressure  
Sea Level Pressure 29.34 in    
Wind  
Wind Speed 6 mph ()    
Max Wind Speed 13 mph    
Max Gust Speed -    
Visibility 6.1 miles    
Events Rain    
Averages and records for this station are not official NWS values.
T = Trace of Precipitation, MM = Missing Value Source: Averaged Metar Reports

Daily Weather History Graph

Daily Weather History Graph

Search for Another Location

Airport or City:

Astronomy

Sep. 13, 2017 Rise Set
Actual Time 6:45 AM BST 7:40 PM BST
Civil Twilight 6:08 AM BST 8:17 PM BST
Nautical Twilight 5:22 AM BST 9:03 PM BST
Astronomical Twilight 4:31 AM BST 9:52 PM BST
Moon 11:44 PM BST (9/13) 3:26 PM BST (9/13)
Length of Visible Light 14h 09m
Length of Day
12h 54m
Waning Gibbous, 48% of the Moon is Illuminated
Sep 13
Waning Gibbous
Sep 20
New
Sep 28
First Quarter
Oct 5
Full
Oct 12
Last Quarter

Hourly Weather History & Observations

Time (BST) Temp. Windchill Dew Point Humidity Pressure Visibility Wind Dir Wind Speed Gust Speed Precip Events Conditions
12:20 AM 48.2 °F - 48.2 °F 100% 29.24 in 5.0 mi West 2.3 mph - N/A Rain Light Rain
12:50 AM 48.2 °F - 48.2 °F 100% 29.24 in - West 3.5 mph - N/A Rain Light Rain
1:20 AM 48.2 °F - 48.2 °F 100% 29.24 in - West 3.5 mph - N/A Rain Light Rain
1:50 AM 48.2 °F - 48.2 °F 100% 29.24 in - West 3.5 mph - N/A   Light Drizzle
2:20 AM 48.2 °F - 48.2 °F 100% 29.24 in 3.1 mi West 3.5 mph - N/A Rain Light Rain
2:50 AM 48.2 °F - 46.4 °F 93% 29.24 in 5.0 mi WSW 4.6 mph - N/A Rain Light Rain
3:20 AM 48.2 °F - 46.4 °F 93% 29.24 in 6.2 mi WSW 5.8 mph - N/A Rain Light Rain
3:50 AM 48.2 °F - 46.4 °F 93% 29.24 in 6.2 mi WSW 5.8 mph - N/A Rain Light Rain
4:20 AM 48.2 °F - 46.4 °F 93% 29.24 in 6.2 mi WSW 4.6 mph - N/A Rain Light Rain
4:50 AM 48.2 °F - 46.4 °F 93% 29.24 in 6.2 mi WSW 4.6 mph - N/A Rain Light Rain
5:20 AM 48.2 °F - 46.4 °F 93% 29.24 in 6.2 mi WSW 4.6 mph - N/A Rain Light Rain
5:50 AM 48.2 °F - 46.4 °F 93% 29.24 in 6.2 mi West 8.1 mph - N/A Rain Light Rain
6:20 AM 48.2 °F - 46.4 °F 93% 29.24 in 6.2 mi West 5.8 mph - N/A Rain Light Rain
6:50 AM 48.2 °F - 46.4 °F 93% 29.24 in 6.2 mi West 5.8 mph - N/A Rain Light Rain
7:20 AM 48.2 °F - 46.4 °F 93% 29.27 in 6.2 mi West 6.9 mph - N/A Rain Light Rain
7:50 AM 48.2 °F - 46.4 °F 93% 29.27 in 6.2 mi WSW 6.9 mph - N/A Rain Light Rain
8:20 AM 50.0 °F - 46.4 °F 87% 29.27 in 6.2 mi WSW 9.2 mph - N/A Rain Light Rain
8:50 AM 50.0 °F - 46.4 °F 87% 29.27 in 6.2 mi West 5.8 mph - N/A Rain Light Rain
9:20 AM 50.0 °F - 46.4 °F 87% 29.30 in 6.2 mi West 4.6 mph - N/A   Unknown
9:50 AM 51.8 °F - 48.2 °F 88% 29.30 in 6.2 mi WSW 6.9 mph - N/A   Unknown
10:20 AM 51.8 °F - 48.2 °F 88% 29.33 in 6.2 mi WSW 9.2 mph - N/A   Unknown
10:50 AM 53.6 °F - 48.2 °F 82% 29.33 in 6.2 mi WSW 9.2 mph - N/A   Unknown
11:20 AM 55.4 °F - 48.2 °F 77% 29.33 in 6.2 mi West 10.4 mph - N/A   Scattered Clouds
11:50 AM 55.4 °F - 48.2 °F 77% 29.33 in 6.2 mi West 10.4 mph - N/A   Mostly Cloudy
12:20 PM 55.4 °F - 48.2 °F 77% 29.33 in 6.2 mi West 11.5 mph - N/A   Mostly Cloudy
12:50 PM 57.2 °F - 46.4 °F 67% 29.33 in 6.2 mi WNW 9.2 mph - N/A   Mostly Cloudy
1:20 PM 53.6 °F - 46.4 °F 77% 29.36 in 6.2 mi West 12.7 mph - N/A Rain Light Rain
1:50 PM 55.4 °F - 48.2 °F 77% 29.36 in 6.2 mi WSW 10.4 mph - N/A   Partly Cloudy
2:20 PM 55.4 °F - 46.4 °F 72% 29.36 in 6.2 mi WSW 11.5 mph - N/A   Partly Cloudy
2:50 PM 55.4 °F - 46.4 °F 72% 29.36 in 6.2 mi West 10.4 mph - N/A Rain Light Rain
3:20 PM 53.6 °F - 46.4 °F 77% 29.39 in 6.2 mi West 8.1 mph - N/A   Partly Cloudy
3:50 PM 57.2 °F - 48.2 °F 72% 29.39 in 6.2 mi West 9.2 mph - N/A   Unknown
4:20 PM 57.2 °F - 46.4 °F 67% 29.39 in 6.2 mi West 10.4 mph - N/A   Scattered Clouds
4:50 PM 57.2 °F - 48.2 °F 72% 29.39 in 6.2 mi West 8.1 mph - N/A   Mostly Cloudy
5:20 PM 57.2 °F - 46.4 °F 67% 29.39 in 6.2 mi West 10.4 mph - N/A   Mostly Cloudy
5:50 PM 55.4 °F - 46.4 °F 72% 29.39 in 6.2 mi West 11.5 mph - N/A   Scattered Clouds
6:20 PM 53.6 °F - 44.6 °F 72% 29.39 in 6.2 mi West 10.4 mph - N/A   Unknown
6:50 PM 53.6 °F - 46.4 °F 77% 29.42 in 6.2 mi West 6.9 mph - N/A   Unknown
7:20 PM 51.8 °F - 46.4 °F 82% 29.42 in 6.2 mi WSW 5.8 mph - N/A   Unknown
7:50 PM 50.0 °F - 46.4 °F 87% 29.42 in 6.2 mi WSW 4.6 mph - N/A   Unknown
8:20 PM 48.2 °F - 46.4 °F 93% 29.44 in 6.2 mi WSW 5.8 mph - N/A   Unknown
8:50 PM 48.2 °F - 46.4 °F 93% 29.44 in 6.2 mi WSW 4.6 mph - N/A   Unknown
9:20 PM 48.2 °F - 44.6 °F 87% 29.44 in 6.2 mi WSW 4.6 mph - N/A   Unknown
9:50 PM 48.2 °F - 46.4 °F 93% 29.47 in 6.2 mi WSW 3.5 mph - N/A   Unknown
10:20 PM 46.4 °F 45.2 °F 44.6 °F 93% 29.47 in 6.2 mi WSW 3.5 mph - N/A   Unknown
10:50 PM 46.4 °F 44.3 °F 44.6 °F 93% 29.47 in 6.2 mi WSW 4.6 mph - N/A   Unknown
11:20 PM 46.4 °F 43.5 °F 44.6 °F 93% 29.50 in 6.2 mi SW 5.8 mph - N/A   Unknown
11:50 PM 44.6 °F 40.7 °F 42.8 °F 93% 29.50 in 6.2 mi SW 6.9 mph - N/A   Unknown